Location: Castifao
(42.5040°N, 9.1124°E)
Time: 15:39:04
(UTC+00:00)

Cosmos 1339 Rocket - Pass Details

Date: 23 January 2020
Orbit: 942 x 1006 km, 82.9° (Epoch: 23 February)

Event Time Altitude Azimuth Distance (km) Brightness Sun altitude
Rises 17:29:22 0° 355° (N) 3,617 7.4 -11.9°
Reaches altitude 10° 17:31:55 10° 360° (N) 2,670 6.6 -12.4°
Maximum altitude 17:37:55 58° 79° (E) 1,102 4.5 -13.5°
Drops below altitude 10° 17:43:55 10° 158° (SSE) 2,680 6.7 -14.5°
Sets 17:46:28 0° 162° (SSE) 3,631 7.4 -15.0°
